| time (UTC) | temp C | wind direction | speed KPH | gust KPH | rain 1hr cm | rain 24hr cm | rain mn cm | humidity % | barometer mb |
| 20260506073400 | 17 | 150 | 9.7 | 0.0 | 0.00 | 0.00 | 0.00 | 49 | 1016.0 |
| 20260506071859 | 17 | 150 | 9.7 | 0.0 | 0.00 | 0.00 | 0.00 | 49 | 1016.0 |
| 20260506070359 | 17 | 150 | 9.7 | 0.0 | 0.00 | 0.00 | 0.00 | 49 | 1016.0 |
| 20260506061900 | 15 | 150 | 11.3 | 0.0 | 0.00 | 0.00 | 0.00 | 55 | 1016.0 |
| 20260506060401 | 15 | 150 | 11.3 | 0.0 | 0.00 | 0.00 | 0.00 | 55 | 1016.0 |
| 20260506050413 | 10 | 160 | 9.7 | 0.0 | 0.00 | 0.00 | 0.00 | 71 | 1015.0 |
| 20260506044915 | 6 | 120 | 12.9 | 0.0 | 0.00 | 0.00 | 0.00 | 87 | 1015.0 |
| 20260506043403 | 6 | 120 | 12.9 | 0.0 | 0.00 | 0.00 | 0.00 | 87 | 1015.0 |
| 20260506041900 | 6 | 120 | 12.9 | 0.0 | 0.00 | 0.00 | 0.00 | 87 | 1015.0 |
| 20260506040359 | 6 | 120 | 12.9 | 0.0 | 0.00 | 0.00 | 0.00 | 87 | 1015.0 |
| 20260506034900 | 5 | 140 | 11.3 | 0.0 | 0.00 | 0.00 | 0.00 | 87 | 1015.0 |
| 20260506033359 | 5 | 140 | 11.3 | 0.0 | 0.00 | 0.00 | 0.00 | 87 | 1015.0 |
| 20260506031859 | 5 | 140 | 11.3 | 0.0 | 0.00 | 0.00 | 0.00 | 87 | 1015.0 |
| 20260506030359 | 5 | 140 | 11.3 | 0.0 | 0.00 | 0.00 | 0.00 | 87 | 1015.0 |
| 20260506024859 | 7 | 170 | 14.5 | 0.0 | 0.00 | 0.00 | 0.00 | 87 | 1016.0 |
| 20260506023359 | 7 | 170 | 14.5 | 0.0 | 0.00 | 0.00 | 0.00 | 87 | 1016.0 |
| 20260506021857 | -17 | 0.0 | 0.0 | 0.00 | 0.00 | 0.00 | |||
| 20260506020359 | -17 | 0.0 | 0.0 | 0.00 | 0.00 | 0.00 | |||
| 20260506014859 | 7 | 170 | 14.5 | 0.0 | 0.00 | 0.00 | 0.00 | 87 | 1016.0 |
| 20260506013359 | 7 | 170 | 14.5 | 0.0 | 0.00 | 0.00 | 0.00 | 87 | 1016.0 |
| 20260506011900 | 7 | 170 | 14.5 | 0.0 | 0.00 | 0.00 | 0.00 | 87 | 1016.0 |
| 20260506010359 | 7 | 170 | 14.5 | 0.0 | 0.00 | 0.00 | 0.00 | 87 | 1016.0 |
| 20260506004856 | 7 | 170 | 14.5 | 0.0 | 0.00 | 0.00 | 0.00 | 87 | 1016.0 |
| 20260506003523 | -17 | 0.0 | 0.0 | 0.00 | 0.00 | 0.00 | |||
| 20260506001900 | 7 | 160 | 14.5 | 0.0 | 0.00 | 0.00 | 0.00 | 87 | 1016.0 |
| 20260506000401 | 7 | 160 | 14.5 | 0.0 | 0.00 | 0.00 | 0.00 | 87 | 1016.0 |
| 20260505234900 | -17 | 0.0 | 0.0 | 0.00 | 0.00 | 0.00 | |||
| 20260505233359 | -17 | 0.0 | 0.0 | 0.00 | 0.00 | 0.00 | |||
| 20260505231859 | -17 | 0.0 | 0.0 | 0.00 | 0.00 | 0.00 | |||
| 20260505230400 | -17 | 0.0 | 0.0 | 0.00 | 0.00 | 0.00 | |||
| 20260505224900 | 8 | 150 | 12.9 | 0.0 | 0.00 | 0.00 | 0.00 | 82 | 1016.0 |
| 20260505223359 | 8 | 150 | 12.9 | 0.0 | 0.00 | 0.00 | 0.00 | 82 | 1016.0 |
| 20260505221857 | 8 | 150 | 12.9 | 0.0 | 0.00 | 0.00 | 0.00 | 82 | 1016.0 |
| 20260505220400 | 8 | 150 | 12.9 | 0.0 | 0.00 | 0.00 | 0.00 | 82 | 1016.0 |
| 20260505214900 | 8 | 150 | 12.9 | 0.0 | 0.00 | 0.00 | 0.00 | 82 | 1016.0 |
| 20260505213400 | 10 | 140 | 14.5 | 0.0 | 0.00 | 0.00 | 0.00 | 76 | 1016.0 |
| 20260505211859 | 10 | 140 | 14.5 | 0.0 | 0.00 | 0.00 | 0.00 | 76 | 1016.0 |
| 20260505210400 | 10 | 140 | 14.5 | 0.0 | 0.00 | 0.00 | 0.00 | 76 | 1016.0 |
| 20260505204901 | 10 | 140 | 14.5 | 0.0 | 0.00 | 0.00 | 0.00 | 76 | 1016.0 |
| 20260505203359 | 10 | 140 | 14.5 | 0.0 | 0.00 | 0.00 | 0.00 | 76 | 1016.0 |
| 20260505201930 | 10 | 140 | 14.5 | 0.0 | 0.00 | 0.00 | 0.00 | 76 | 1016.0 |
| 20260505200400 | 10 | 140 | 14.5 | 0.0 | 0.00 | 0.00 | 0.00 | 76 | 1016.0 |
| 20260505194859 | 11 | 140 | 20.9 | 0.0 | 0.00 | 0.00 | 0.00 | 72 | 1015.0 |
| 20260505193359 | 11 | 140 | 20.9 | 0.0 | 0.00 | 0.00 | 0.00 | 72 | 1015.0 |
| 20260505191859 | 11 | 140 | 20.9 | 0.0 | 0.00 | 0.00 | 0.00 | 72 | 1015.0 |
| 20260505190359 | 11 | 140 | 20.9 | 0.0 | 0.00 | 0.00 | 0.00 | 72 | 1015.0 |
| 20260505184900 | 12 | 130 | 17.7 | 0.0 | 0.00 | 0.00 | 0.00 | 59 | 1015.0 |
| 20260505183400 | 12 | 130 | 17.7 | 0.0 | 0.00 | 0.00 | 0.00 | 59 | 1015.0 |
| 20260505181857 | 12 | 130 | 17.7 | 0.0 | 0.00 | 0.00 | 0.00 | 59 | 1015.0 |
| 20260505180400 | 12 | 130 | 17.7 | 0.0 | 0.00 | 0.00 | 0.00 | 59 | 1015.0 |
| 20260505174854 | 17 | 130 | 22.5 | 0.0 | 0.00 | 0.00 | 0.00 | 52 | 1015.0 |
| 20260505173359 | 17 | 130 | 22.5 | 0.0 | 0.00 | 0.00 | 0.00 | 52 | 1015.0 |
| 20260505171859 | 17 | 130 | 22.5 | 0.0 | 0.00 | 0.00 | 0.00 | 52 | 1015.0 |
| 20260505170400 | 17 | 130 | 22.5 | 0.0 | 0.00 | 0.00 | 0.00 | 52 | 1015.0 |
| 20260505164859 | 18 | 120 | 25.7 | 0.0 | 0.00 | 0.00 | 0.00 | 46 | 1014.0 |
| 20260505163400 | 18 | 120 | 25.7 | 0.0 | 0.00 | 0.00 | 0.00 | 46 | 1014.0 |
| 20260505161900 | 18 | 120 | 25.7 | 0.0 | 0.00 | 0.00 | 0.00 | 46 | 1014.0 |
| 20260505160400 | 18 | 120 | 25.7 | 0.0 | 0.00 | 0.00 | 0.00 | 46 | 1014.0 |
| 20260505153400 | 21 | 130 | 22.5 | 0.0 | 0.00 | 0.00 | 0.00 | 43 | 1014.0 |
| 20260505151908 | 21 | 130 | 22.5 | 0.0 | 0.00 | 0.00 | 0.00 | 43 | 1014.0 |
| 20260505150400 | 21 | 130 | 22.5 | 0.0 | 0.00 | 0.00 | 0.00 | 43 | 1014.0 |
| 20260505140359 | 22 | 90 | 8.0 | 0.0 | 0.00 | 0.00 | 0.00 | 36 | 1014.0 |
| 20260505124900 | 22 | 100 | 12.9 | 0.0 | 0.00 | 0.00 | 0.00 | 38 | 1015.0 |
| 20260505123359 | 22 | 100 | 12.9 | 0.0 | 0.00 | 0.00 | 0.00 | 38 | 1015.0 |
| 20260505121859 | 22 | 100 | 12.9 | 0.0 | 0.00 | 0.00 | 0.00 | 38 | 1015.0 |
| 20260505120412 | -17 | 0.0 | 0.0 | 0.00 | 0.00 | 0.00 | |||
| 20260505114907 | 21 | 120 | 11.3 | 0.0 | 0.00 | 0.00 | 0.00 | 35 | 1016.0 |
| 20260505113430 | 21 | 120 | 11.3 | 0.0 | 0.00 | 0.00 | 0.00 | 35 | 1016.0 |
| 20260505111900 | 21 | 120 | 11.3 | 0.0 | 0.00 | 0.00 | 0.00 | 35 | 1016.0 |
| 20260505110400 | 21 | 120 | 11.3 | 0.0 | 0.00 | 0.00 | 0.00 | 35 | 1016.0 |
| 20260505101900 | 21 | 200 | 11.3 | 0.0 | 0.00 | 0.00 | 0.00 | 38 | 1016.0 |
| 20260505100400 | 21 | 200 | 11.3 | 0.0 | 0.00 | 0.00 | 0.00 | 38 | 1016.0 |
| 20260505094901 | 18 | 210 | 9.7 | 0.0 | 0.00 | 0.00 | 0.00 | 40 | 1017.0 |
| 20260505093359 | 18 | 210 | 9.7 | 0.0 | 0.00 | 0.00 | 0.00 | 40 | 1017.0 |
| 20260505091859 | 18 | 210 | 9.7 | 0.0 | 0.00 | 0.00 | 0.00 | 40 | 1017.0 |
| 20260505090359 | 18 | 210 | 9.7 | 0.0 | 0.00 | 0.00 | 0.00 | 40 | 1017.0 |
| 20260505084859 | 17 | 200 | 11.3 | 0.0 | 0.00 | 0.00 | 0.00 | 52 | 1017.0 |
| 20260505083400 | 17 | 200 | 11.3 | 0.0 | 0.00 | 0.00 | 0.00 | 52 | 1017.0 |
| 20260505081900 | 17 | 200 | 11.3 | 0.0 | 0.00 | 0.00 | 0.00 | 52 | 1017.0 |
| 20260505080405 | 17 | 200 | 11.3 | 0.0 | 0.00 | 0.00 | 0.00 | 52 | 1017.0 |
| 20260505074923 | -17 | 0.0 | 0.0 | 0.00 | 0.00 | 0.00 |